Location: *
(60.1759°S, 155.0663°W)
Time: 02:00:39
(UTC+00:00)

SL-08 R/B - Pass Details

Date: 17 September 2019
Orbit: 946 x 994 km, 83.0° (Epoch: 22 October)

Event Time Altitude Azimuth Distance (km) Brightness Sun altitude
Rises 15:30:26 0° 194° (SSW) 3,669 7.5 -7.4°
Reaches altitude 10° 15:32:57 10° 195° (SSW) 2,722 6.8 -7.1°
Maximum altitude 15:39:09 73° 278° (W) 1,021 4.5 -6.3°
Drops below altitude 10° 15:45:22 10° 1° (N) 2,725 6.8 -5.6°
Sets 15:47:53 0° 2° (N) 3,672 7.5 -5.2°
